Hourly Weather Roundup
Issued by NWS Central Illinois

Home | Current Version | Previous Version | Text Only | Print | Product List | Glossary On
Versions: 1 2 3 4 5 6 7 8 9 10 11 12 13 14 15 16 17 18 19 20 21 22 23 24 25 26 27 28 29 30 31 32 33 34 35 36 37 38 39 40 41 42 43 44 45 46 47 48 49 50
000
NZUS43 KILX 291810
HWRILX

Area Weather Roundup
National Weather Service Lincoln IL
100 PM CDT MON MAY 29 2017

NOTE:  "FAIR" indicates few or no clouds below 12,000 feet, with
       no sigificant weather and/or obstructions to visibility.


CITY           SKY/WX    TMP DP  RH WIND       PRES   REMARKS
Bloomington    PTSUNNY   79  47  32 W10G28    29.90F
6HR MIN TEMP:  61; 6HR MAX TEMP:  80;

Champaign      MOSUNNY   84  45  25 W15G29    29.90F HX  82
6HR MIN TEMP:  63; 6HR MAX TEMP:  84;

Danville       SUNNY     81  47  31 W18G25    29.86F HX  80
6HR MIN TEMP:  62; 6HR MAX TEMP:  81;

Decatur        SUNNY     81  48  31 W14G20    29.91F HX  80
6HR MIN TEMP:  64; 6HR MAX TEMP:  81;

Effingham      SUNNY     81  54  39 SW6       29.94F HX  80
6HR MIN TEMP:  62; 6HR MAX TEMP:  81;

Flora          SUNNY     83  46  26 W10       29.94F HX  81
Galesburg      SUNNY     75  46  35 W13G20    29.91S
6HR MIN TEMP:  59; 6HR MAX TEMP:  75;

Jacksonville   MOSUNNY   79  53  41 W17       29.93S
6HR MIN TEMP:  61; 6HR MAX TEMP:  79;

Lacon          SUNNY     75  45  34 W14G21    29.88F
6HR MIN TEMP:  61; 6HR MAX TEMP:  76;

Lawrenceville  MOSUNNY   84  51  31 SW20G26   29.93F HX  82
6HR MIN TEMP:  64; 6HR MAX TEMP:  85;

Litchfield     SUNNY     80  51  36 W10       29.93F
6HR MIN TEMP:  60; 6HR MAX TEMP:  80;

$$


CITY           SKY/WX    TMP DP  RH WIND       PRES   REMARKS
Lincoln        MOSUNNY   81  48  31 W6G16     29.91F HX  80
6HR MIN TEMP:  64; 6HR MAX TEMP:  81;

Macomb         MOSUNNY   74  46  35 W14       29.95S
6HR MIN TEMP:  60; 6HR MAX TEMP:  74;

Mattoon        SUNNY     80  50  34 W7        29.91F HX  80
6HR MIN TEMP:  64; 6HR MAX TEMP:  80;

Mt Carmel AP   MOSUNNY   83  48  30 SW13      29.93F HX  81
6HR MIN TEMP:  64; 6HR MAX TEMP:  83;

Olney-Noble AP SUNNY     83  49  30 W10G18    29.94F HX  81
Paris AP       SUNNY     81  52  36 SW12G22   29.91F HX  80
6HR MIN TEMP:  63; 6HR MAX TEMP:  81;

Peoria         PTSUNNY   75  48  38 NW10G21   29.91S
6HR MIN TEMP:  59; 6HR MAX TEMP:  76;

Pontiac        PTSUNNY   78  47  34 W20G26    29.89S
6HR MIN TEMP:  61; 6HR MAX TEMP:  78;

Rantoul        SUNNY     83  44  26 W14G26    29.89F HX  81
6HR MIN TEMP:  65; 6HR MAX TEMP:  83;

Robinson       SUNNY     82  52  35 W12       29.93F HX  81
6HR MIN TEMP:  64; 6HR MAX TEMP:  83;

Springfield    SUNNY     83  50  31 W16       29.92F HX  81
6HR MIN TEMP:  63; 6HR MAX TEMP:  83;

Taylorville    SUNNY     82  47  29 W14       29.92F HX  81
6HR MIN TEMP:  63; 6HR MAX TEMP:  83;

$$

...REGIONAL REPORTS...


CITY           SKY/WX    TMP DP  RH WIND       PRES   REMARKS
Chicago O`Hare MOSUNNY   76  42  29 W25G35    29.82S
Kankakee       PTSUNNY   80  47  31 W14G25    29.87S
Moline         SUNNY     74  45  35 W20       29.89S
Mount Sterling PTSUNNY   76  53  45 NW10G16   29.93F
Mount Vernon     N/A     81  50  33 W9        29.95F HX  80
Pittsfield     CLOUDY    76  54  46 W8        29.95S
Quincy         PTSUNNY   75  53  46 NW12      29.95R
Rockford       MOSUNNY   72  48  42 W21G30    29.85S
$$


CITY           SKY/WX    TMP DP  RH WIND       PRES   REMARKS
Burlington     MOSUNNY   76  44  32 W15G25    29.92S
Cedar Rapids   PTSUNNY   71  46  40 W24G35    29.89F
Des Moines     MOSUNNY   74  41  30 W25G35    29.95R
Kirksville     SUNNY     76  50  40 NW10G17   29.97F
Ottumwa        SUNNY     73  44  35 W15G23    29.94S
St Louis       MOSUNNY   86  48  26 SW14      29.94F HX  83
$$


CITY           SKY/WX    TMP DP  RH WIND       PRES   REMARKS
Terre Haute    SUNNY     80  53  39 SW12      29.92S HX  80
Evansville     MOSUNNY   84  54  35 SW16      29.97S HX  83
Indianapolis   MOSUNNY   79  53  40 SW15      29.91F
Lafayette      SUNNY     78  50  37 W12       29.88F
Madison        PTSUNNY   66  47  50 W12G21    29.80S
Milwaukee      MOSUNNY   72  44  36 W23G31    29.79R
$$






USA.gov is the U.S. government's official web portal to all federal, state and local government web resources and services.